{"data":{"norad_id":59742,"epoch":"2026-09-21T02:49:46.797600Z","epoch_age_seconds":117977,"freshness":"FRESH","line1":"1 59742U 24090N   26264.11790275  .00006719  00000+0  25374-3 0  9990","line2":"2 59742  43.0041 160.1997 0001628 251.4798 108.5877 15.27544911133302","mean_motion":15.27544911,"eccentricity":0.0001628,"inclination_deg":43.0041,"raan_deg":160.1997,"arg_perigee_deg":251.4798,"mean_anomaly_deg":108.5877,"bstar":0.00025374,"rev_number":13330,"period_min":94.268914100687,"perigee_km":482.03714893811,"apogee_km":484.27118534213,"semimajor_km":6861.2911671401,"source":"CELESTRAK","updated_at":"2026-09-22T09:00:49.064158Z"}}